Location: Cazarilh
(42.9578°N, 0.5819°E)
Time: 06:03:03
(UTC+00:00)

Cosmos 676 Rocket - Pass Details

Date: 11 December 2019
Orbit: 754 x 785 km, 74.0° (Epoch: 23 January)

Event Time Altitude Azimuth Distance (km) Brightness Sun altitude
Exits shadow 05:13:45 51° 287° (WNW) 969 4.1 -22.0°
Maximum altitude 05:14:28 56° 255° (WSW) 920 4.0 -21.8°
Drops below altitude 10° 05:19:37 10° 178° (S) 2,320 6.6 -20.9°
Sets 05:22:01 0° 174° (S) 3,247 7.5 -20.5°
